• In Latvia
  • List of Countries
  • For 7 days
  • Water Temperature
  • Satellite Maps
  • Weather Map
  • Weather Widgets
  • user-avatar
    Login

    Hourly Weather Grobina

    Today, 24 October, Wednesday

    Time Temperature Precipitation Wind Pressure Humidity
    00:00 +4°C° 0.4 mm 11 mps 736 mmHg 77%
    01:00 +4°C° 0.4 mm 12 mps 736 mmHg 76%
    02:00 +4°C° 0.5 mm 12 mps 736 mmHg 75%
    03:00 +4°C° 0.5 mm 13 mps 737 mmHg 75%
    04:00 +4°C° 0.5 mm 13 mps 737 mmHg 74%
    05:00 +4°C° 0.6 mm 14 mps 737 mmHg 75%
    06:00 +4°C° 0.6 mm 14 mps 738 mmHg 77%
    07:00 +4°C° 0.6 mm 14 mps 738 mmHg 78%
    08:00 +4°C° 0.7 mm 14 mps 739 mmHg 78%
    09:00 +5°C° 0.7 mm 13 mps 740 mmHg 77%
    10:00 +5°C° 0.7 mm 13 mps 740 mmHg 77%
    11:00 +5°C° 0.7 mm 13 mps 742 mmHg 75%
    12:00 +5°C° 0.7 mm 12 mps 743 mmHg 73%
    13:00 +7°C° 0.7 mm 12 mps 744 mmHg 71%
    14:00 +5°C° 0.3 mm 12 mps 745 mmHg 72%
    15:00 +6°C° 0.3 mm 11 mps 746 mmHg 73%
    16:00 +5°C° 0.3 mm 10 mps 747 mmHg 74%
    17:00 +5°C° 0.2 mm 10 mps 747 mmHg 75%
    18:00 +3°C° 0.2 mm 9 mps 748 mmHg 76%
    19:00 +3°C° 0.2 mm 9 mps 749 mmHg 77%
    20:00 +4°C° 0.1 mm 8 mps 749 mmHg 78%
    21:00 +4°C° 0.1 mm 7 mps 749 mmHg 78%
    22:00 +4°C° 0.1 mm 7 mps 749 mmHg 79%
    23:00 +3°C° 0.1 mm 6 mps 749 mmHg 80%

    Tomorrow, 25 October, Thursday

    Time Temperature Precipitation Wind Pressure Humidity
    00:00 +3°C° 0.1 mm 6 mps 749 mmHg 80%
    01:00 +3°C° 0.1 mm 5 mps 749 mmHg 81%
    02:00 +3°C° 0 mm 5 mps 748 mmHg 81%
    03:00 +3°C° 0 mm 5 mps 747 mmHg 81%
    04:00 +3°C° 0 mm 5 mps 747 mmHg 81%
    05:00 +4°C° 0 mm 4 mps 746 mmHg 80%
    06:00 +4°C° 0 mm 4 mps 745 mmHg 79%
    07:00 +4°C° 0 mm 3 mps 744 mmHg 79%
    08:00 +5°C° 0.4 mm 3 mps 744 mmHg 76%
    09:00 +6°C° 0.4 mm 2 mps 743 mmHg 74%
    10:00 +7°C° 0.4 mm 2 mps 742 mmHg 72%
    11:00 +7°C° 0.6 mm 2 mps 742 mmHg 74%
    12:00 +6°C° 0.6 mm 2 mps 742 mmHg 77%
    13:00 +6°C° 0.6 mm 2 mps 742 mmHg 79%
    14:00 +6°C° 0.5 mm 2 mps 742 mmHg 82%
    15:00 +6°C° 0.5 mm 2 mps 742 mmHg 85%
    16:00 +5°C° 0.5 mm 2 mps 743 mmHg 88%
    17:00 +5°C° 0.3 mm 2 mps 743 mmHg 88%
    18:00 +4°C° 0.3 mm 3 mps 744 mmHg 89%
    19:00 +4°C° 0.3 mm 3 mps 744 mmHg 89%
    20:00 +4°C° 0.1 mm 3 mps 744 mmHg 90%
    21:00 +3°C° 0.1 mm 3 mps 745 mmHg 91%
    22:00 +3°C° 0.1 mm 3 mps 745 mmHg 91%
    23:00 +3°C° 0.2 mm 4 mps 745 mmHg 90%

    Day after tomorrow, 26 October, Friday

    Time Temperature Precipitation Wind Pressure Humidity
    00:00 +3°C° 0.2 mm 4 mps 745 mmHg 89%
    01:00 +4°C° 0.2 mm 4 mps 746 mmHg 87%
    02:00 +3°C° 0.1 mm 4 mps 746 mmHg 86%
    03:00 +3°C° 0.1 mm 4 mps 746 mmHg 86%
    04:00 +3°C° 0.1 mm 4 mps 746 mmHg 85%
    05:00 +3°C° 0 mm 4 mps 746 mmHg 84%
    06:00 +3°C° 0 mm 4 mps 746 mmHg 84%
    07:00 +3°C° 0 mm 3 mps 746 mmHg 83%
    08:00 +4°C° 0 mm 3 mps 746 mmHg 78%
    09:00 +5°C° 0 mm 3 mps 746 mmHg 73%
    10:00 +7°C° 0 mm 3 mps 746 mmHg 68%
    11:00 +7°C° 0.1 mm 3 mps 746 mmHg 68%
    12:00 +7°C° 0.1 mm 2 mps 746 mmHg 68%
    13:00 +8°C° 0.1 mm 2 mps 746 mmHg 69%
    14:00 +7°C° 0.4 mm 2 mps 745 mmHg 75%
    15:00 +6°C° 0.4 mm 2 mps 745 mmHg 80%
    16:00 +6°C° 0.4 mm 2 mps 744 mmHg 86%
    17:00 +5°C° 1.3 mm 3 mps 744 mmHg 88%
    18:00 +4°C° 1.3 mm 3 mps 743 mmHg 91%
    19:00 +4°C° 1.3 mm 4 mps 742 mmHg 93%
    20:00 +4°C° 1.4 mm 4 mps 741 mmHg 93%
    21:00 +3°C° 1.4 mm 5 mps 741 mmHg 92%
    22:00 +3°C° 1.4 mm 5 mps 740 mmHg 92%
    23:00 +3°C° 0.7 mm 6 mps 740 mmHg 91%

    27 October, Saturday

    Time Temperature Precipitation Wind Pressure Humidity
    00:00 +3°C° 0.7 mm 7 mps 739 mmHg 89%
    01:00 +3°C° 0.7 mm 7 mps 739 mmHg 88%
    02:00 +3°C° 1.1 mm 7 mps 740 mmHg 86%
    03:00 +3°C° 1.1 mm 7 mps 740 mmHg 84%
    04:00 +3°C° 1.1 mm 7 mps 740 mmHg 83%
    05:00 +3°C° 0.2 mm 6 mps 741 mmHg 83%
    06:00 +2°C° 0.2 mm 6 mps 742 mmHg 83%
    07:00 +2°C° 0.2 mm 5 mps 743 mmHg 83%
    08:00 +3°C° 0.1 mm 5 mps 744 mmHg 80%
    09:00 +4°C° 0.1 mm 4 mps 745 mmHg 76%
    10:00 +5°C° 0.1 mm 4 mps 746 mmHg 73%
    11:00 +5°C° 0.2 mm 4 mps 747 mmHg 72%
    12:00 +5°C° 0.2 mm 4 mps 748 mmHg 70%
    13:00 +6°C° 0.2 mm 4 mps 749 mmHg 69%
    14:00 +5°C° 0.1 mm 4 mps 749 mmHg 71%
    15:00 +4°C° 0.1 mm 4 mps 750 mmHg 74%
    16:00 +4°C° 0.1 mm 4 mps 751 mmHg 77%
    17:00 +3°C° 0.1 mm 4 mps 751 mmHg 78%
    18:00 +3°C° 0.1 mm 4 mps 752 mmHg 79%
    19:00 +1°C° 0.1 mm 4 mps 753 mmHg 81%
    20:00 +1°C° 0.1 mm 4 mps 753 mmHg 81%
    21:00 +1°C° 0.1 mm 4 mps 754 mmHg 81%
    22:00 +1°C° 0.1 mm 4 mps 755 mmHg 82%
    23:00 +1°C° 0.1 mm 4 mps 755 mmHg 82%

    28 October, Sunday

    Time Temperature Precipitation Wind Pressure Humidity
    00:00 +1°C° 0.1 mm 4 mps 756 mmHg 82%
    01:00 +1°C° 0.1 mm 4 mps 756 mmHg 82%
    02:00 +1°C° 0 mm 4 mps 757 mmHg 82%
    03:00 +1°C° 0 mm 4 mps 757 mmHg 82%
    04:00 +2°C° 0 mm 3 mps 758 mmHg 81%
    05:00 +1°C° 0 mm 3 mps 758 mmHg 81%
    06:00 +1°C° 0 mm 3 mps 759 mmHg 82%
    07:00 +1°C° 0 mm 3 mps 759 mmHg 82%
    08:00 +2°C° 0 mm 3 mps 760 mmHg 77%
    09:00 +3°C° 0 mm 3 mps 761 mmHg 73%
    10:00 +3°C° 0 mm 3 mps 761 mmHg 68%
    11:00 +4°C° 0 mm 3 mps 762 mmHg 65%
    12:00 +4°C° 0 mm 3 mps 762 mmHg 61%
    13:00 +4°C° 0 mm 3 mps 763 mmHg 58%
    14:00 +3°C° 0 mm 3 mps 763 mmHg 62%
    15:00 +2°C° 0 mm 3 mps 763 mmHg 67%
    16:00 +1°C° 0 mm 3 mps 763 mmHg 71%
    17:00 +1°C° 0 mm 3 mps 764 mmHg 73%
    18:00 0°C° 0 mm 3 mps 764 mmHg 74%
    19:00 0°C° 0 mm 3 mps 765 mmHg 76%
    20:00 0°C° 0 mm 3 mps 765 mmHg 77%
    21:00 -1°C° 0 mm 3 mps 765 mmHg 77%
    22:00 -1°C° 0 mm 3 mps 765 mmHg 77%
    23:00 -1°C° 0 mm 3 mps 766 mmHg 78%

    29 October, Monday

    Time Temperature Precipitation Wind Pressure Humidity
    00:00 -1°C° 0 mm 3 mps 766 mmHg 78%
    01:00 -1°C° 0 mm 3 mps 766 mmHg 79%
    02:00 -1°C° 0 mm 3 mps 766 mmHg 78%
    03:00 -1°C° 0 mm 3 mps 766 mmHg 77%
    04:00 -1°C° 0 mm 3 mps 765 mmHg 76%
    05:00 -1°C° 0 mm 3 mps 765 mmHg 73%
    06:00 -1°C° 0 mm 3 mps 765 mmHg 71%
    07:00 -2°C° 0 mm 4 mps 765 mmHg 69%
    08:00 -1°C° 0 mm 4 mps 766 mmHg 62%
    09:00 0°C° 0 mm 4 mps 766 mmHg 56%
    10:00 +1°C° 0 mm 4 mps 766 mmHg 50%
    11:00 +3°C° 0 mm 4 mps 766 mmHg 48%
    12:00 +3°C° 0 mm 4 mps 766 mmHg 45%
    13:00 +4°C° 0 mm 4 mps 765 mmHg 43%
    14:00 +3°C° 0 mm 4 mps 765 mmHg 48%
    15:00 +1°C° 0 mm 4 mps 765 mmHg 53%
    16:00 0°C° 0 mm 4 mps 765 mmHg 58%
    17:00 -1°C° 0 mm 4 mps 765 mmHg 60%
    18:00 -1°C° 0 mm 4 mps 766 mmHg 62%
    19:00 -2°C° 0 mm 4 mps 766 mmHg 64%
    20:00 -2°C° 0 mm 4 mps 766 mmHg 65%
    21:00 -1°C° 0 mm 3 mps 766 mmHg 66%
    22:00 -1°C° 0 mm 3 mps 766 mmHg 67%
    23:00 -2°C° 0 mm 4 mps 766 mmHg 68%

    30 October, Tuesday

    Time Temperature Precipitation Wind Pressure Humidity
    00:00 -2°C° 0 mm 4 mps 767 mmHg 69%
    01:00 -2°C° 0 mm 4 mps 767 mmHg 70%
    02:00 -2°C° 0 mm 4 mps 767 mmHg 73%
    03:00 -2°C° 0 mm 5 mps 767 mmHg 76%
    04:00 -2°C° 0 mm 5 mps 767 mmHg 79%
    05:00 -2°C° 0 mm 5 mps 767 mmHg 81%
    06:00 -3°C° 0 mm 6 mps 767 mmHg 82%
    07:00 -3°C° 0 mm 6 mps 768 mmHg 83%
    08:00 -2°C° 0 mm 6 mps 768 mmHg 75%
    09:00 -1°C° 0 mm 6 mps 768 mmHg 68%
    10:00 +1°C° 0 mm 6 mps 768 mmHg 60%
    11:00 +1°C° 0 mm 6 mps 768 mmHg 56%
    12:00 0°C° 0 mm 7 mps 768 mmHg 53%
    13:00 +2°C° 0 mm 7 mps 768 mmHg 49%
    14:00 0°C° 0 mm 7 mps 769 mmHg 52%
    15:00 -1°C° 0 mm 7 mps 769 mmHg 54%
    16:00 -2°C° 0 mm 8 mps 769 mmHg 57%
    17:00 -4°C° 0 mm 8 mps 769 mmHg 59%
    18:00 -4°C° 0 mm 9 mps 769 mmHg 62%
    19:00 -4°C° 0 mm 9 mps 769 mmHg 65%
    20:00 -5°C° 0 mm 9 mps 770 mmHg 62%
    21:00 -5°C° 0 mm 9 mps 770 mmHg 59%
    22:00 -5°C° 0 mm 9 mps 770 mmHg 57%
    23:00 -5°C° 0 mm 9 mps 770 mmHg 55%
    Show more